Wind_Speed
7 6 6 6 3 4 3 7 3 3 2 3 5 7 11 4 7 5 19 22 21 20 22 21 18 15 13 14 15 15 13 12 11 10 10 9 8 8 7 5 4 2 2 1 2 2 2 3 4
9 8 9 2 4 1 5 5 6 7 3 11 4 9 5 7 14 5 23 24 22 21 22 21 17 15 15 16 15 16 15 13 12 11 10 9 8 7 6 4 3 2 1 1 1 0 1 1 2
10 13 7 4 4 6 5 4 5 3 15 10 3 6 5 7 16 22 25 25 23 22 22 18 14 15 16 15 16 18 17 15 15 13 11 9 7 5 4 4 3 2 1 1 1 1 2 3 2
11 6 2 3 7 7 6 2 3 9 6 4 6 3 3 9 13 25 26 24 22 21 19 16 13 14 16 17 18 19 19 18 17 14 12 10 8 6 4 3 2 2 1 2 2 2 3 4 5
13 3 2 3 5 6 6 10 12 6 7 7 5 4 2 6 19 24 22 23 20 19 18 16 14 15 18 18 20 21 22 21 18 16 14 13 12 9 7 5 3 1 0 1 2 3 4 4 6
5 2 1 7 7 5 7 15 11 8 11 3 1 5 3 14 17 19 19 19 19 17 16 16 16 19 18 20 22 24 23 22 21 20 18 17 16 14 11 9 6 3 1 1 2 3 4 5 7
5 3 5 4 4 4 5 7 4 4 6 3 4 6 5 15 16 18 18 17 17 18 14 15 18 22 24 26 27 26 26 25 24 24 23 22 21 18 16 13 10 6 3 3 4 4 4 6 8
5 3 4 6 5 6 6 5 7 3 3 5 6 2 3 10 18 17 16 19 14 12 16 20 23 25 27 29 31 31 28 29 28 27 27 26 25 23 20 17 13 10 6 6 6 6 5 6 7
7 1 5 7 8 5 4 1 4 4 4 5 4 4 16 1 16 13 15 17 14 18 20 22 25 25 29 31 33 34 33 32 31 31 30 29 30 28 25 21 16 13 10 9 9 8 7 6 7
7 5 10 6 10 4 5 4 4 4 6 2 11 9 9 10 12 11 15 19 22 24 23 25 26 29 32 34 36 36 35 36 36 36 35 35 35 32 28 24 20 17 14 11 12 11 9 7 7
10 12 14 8 13 15 11 13 12 5 4 14 10 8 13 13 10 18 20 24 24 27 26 29 32 34 35 35 37 40 40 40 40 40 39 39 39 35 33 29 25 22 18 15 15 13 11 10 9
5 17 22 10 15 5 9 17 13 18 21 26 25 25 29 26 25 22 22 22 26 31 33 30 34 37 39 40 40 42 43 45 44 43 43 44 42 40 37 33 29 25 20 18 16 15 13 13 11
15 4 16 32 20 20 18 21 15 27 31 35 35 35 35 31 28 28 25 23 20 23 25 28 30 35 41 44 44 45 45 48 48 46 45 46 45 44 38 34 31 27 23 21 19 18 16 15 14
4 15 19 15 14 10 6 16 11 11 25 29 28 38 36 35 33 30 31 27 23 20 20 29 31 33 32 36 41 39 43 48 49 47 46 47 47 47 40 35 32 31 24 23 22 18 17 15 14
8 5 4 7 6 7 16 25 31 30 30 29 38 45 42 39 34 34 31 29 24 29 31 34 34 32 32 29 32 39 38 40 42 42 43 43 44 43 40 35 33 31 27 27 22 18 18 18 17
4 5 15 15 8 7 12 33 18 31 30 35 37 36 36 37 34 31 31 33 34 35 39 36 37 35 36 32 33 34 39 36 36 38 38 37 34 30 31 32 30 28 27 24 22 18 19 19 19
4 15 11 8 9 9 16 31 7 10 16 24 26 31 33 35 38 37 35 34 36 39 36 35 33 33 30 30 32 35 33 32 35 38 36 32 27 23 22 22 23 22 22 20 17 16 19 20 22
9 10 2 6 6 14 14 29 15 24 25 26 29 35 37 38 43 44 44 46 38 35 36 36 34 34 27 28 32 32 30 33 35 35 34 27 21 18 17 17 15 17 19 15 13 17 19 20 22
4 2 1 0 3 4 17 21 16 13 21 19 27 32 39 42 47 46 42 36 33 31 31 30 32 26 29 27 29 30 30 31 34 30 23 19 15 16 17 15 14 12 13 11 11 12 17 20 19
6 1 3 5 9 5 5 14 10 7 10 20 27 31 33 42 44 41 38 35 32 29 25 27 29 25 23 23 27 27 28 31 27 20 15 16 16 16 16 13 10 11 13 14 14 13 17 18 18
5 8 3 6 7 12 9 16 15 12 17 27 33 35 36 40 40 38 34 32 32 33 32 32 29 25 22 23 26 29 25 20 19 18 17 17 16 15 12 9 10 10 14 15 14 15 17 16 15
4 6 2 1 3 6 3 12 14 13 19 15 20 31 37 34 36 38 36 35 34 32 32 34 29 26 25 25 26 23 20 17 16 13 14 16 15 15 15 9 9 9 11 14 14 15 15 14 13
12 11 9 6 6 3 1 5 14 4 13 15 19 35 39 40 44 45 42 39 37 35 33 27 27 24 23 22 20 16 14 12 10 15 16 17 16 15 16 11 11 12 14 14 15 14 11 11 11
1 5 4 3 3 7 6 7 25 10 16 12 13 28 33 35 35 35 32 28 26 21 24 24 22 22 19 17 14 12 13 14 15 18 19 16 16 14 14 14 13 13 13 15 12 9 10 8 10
3 4 2 1 2 11 14 9 24 5 5 5 3 15 18 20 25 26 26 26 27 25 21 21 22 20 18 15 14 14 14 13 14 15 15 15 13 12 13 13 14 14 14 11 9 9 8 9 10
6 8 4 6 5 5 7 12 11 12 21 21 15 18 20 20 24 28 25 23 23 21 19 19 21 20 19 16 18 18 15 14 15 14 13 10 9 9 10 12 13 11 10 8 8 8 9 9 8
4 4 6 2 1 0 4 11 11 13 18 14 4 14 21 22 27 23 20 19 15 14 17 20 22 20 19 20 20 19 18 18 16 15 13 12 10 11 11 10 9 9 7 6 5 5 6 6 7
7 6 4 2 4 5 4 5 8 7 6 6 8 12 29 34 31 21 14 11 10 14 20 21 20 19 21 20 20 19 18 15 13 13 11 10 10 9 7 8 8 7 7 5 5 6 6 7 7
3 1 2 4 4 4 2 5 7 6 6 3 7 16 28 35 31 13 9 10 16 21 23 23 21 22 22 21 20 19 16 14 12 10 10 9 8 8 8 8 8 7 6 5 5 7 9 9 8
4 4 1 5 5 7 3 7 3 7 7 8 13 24 32 31 19 6 13 20 25 26 25 25 23 23 24 20 17 15 13 12 11 10 9 10 11 9 9 9 7 6 4 3 4 7 7 7 8
Wind_Direction
208 200 171 148 61 58 246 255 262 268 256 321 258 152 187 175 164 207 161 170 168 179 180 179 175 180 184 184 185 181 181 179 175 170 163 156 151 145 138 130 120 119 119 156 188 222 253 276 279
195 179 154 129 105 142 262 229 221 229 285 330 262 145 144 207 190 192 161 170 177 178 183 178 176 190 198 192 192 194 194 189 188 187 181 171 166 156 140 124 106 77 52 67 66 69 281 252 287
183 169 148 152 165 197 232 212 219 256 290 259 260 197 185 190 200 169 168 169 179 183 186 176 177 197 204 202 204 207 206 203 198 197 194 190 186 170 154 136 123 113 63 35 59 317 295 299 290
173 172 115 140 223 256 224 228 317 313 352 167 176 272 267 179 192 173 173 175 183 183 186 185 187 201 212 215 215 216 216 214 211 205 206 209 209 198 192 169 134 94 30 15 351 337 296 295 288
180 212 170 220 246 266 262 270 292 294 281 268 172 222 221 198 168 175 172 176 178 178 184 191 202 213 218 225 222 223 224 221 220 221 220 221 224 222 219 216 195 138 78 348 322 328 309 291 289
197 188 168 222 232 253 272 276 275 276 286 268 259 161 205 164 173 171 178 182 186 191 188 199 214 220 227 230 227 226 230 228 228 230 230 231 230 230 230 231 233 230 276 327 303 311 306 297 285
185 130 224 196 221 249 245 244 217 234 283 59 250 139 237 201 187 184 187 196 199 202 210 218 224 225 228 232 230 229 231 234 233 234 234 235 235 235 233 234 235 240 268 292 292 303 315 315 302
224 152 223 212 193 263 230 258 231 169 278 351 34 270 249 236 207 205 201 204 212 223 231 234 235 235 235 234 236 233 234 236 238 239 239 238 239 238 237 236 235 241 256 268 272 280 296 312 313
196 157 228 213 171 237 201 343 206 285 240 314 316 35 11 331 199 206 212 214 221 231 237 241 244 249 246 240 241 237 235 238 241 243 241 241 241 239 237 239 237 241 249 261 264 265 270 298 311
181 186 224 195 209 240 256 273 274 282 6 249 294 287 326 12 212 234 238 233 232 235 241 245 249 250 248 247 244 245 243 240 241 242 242 242 243 241 241 242 239 241 246 256 259 259 258 273 285
194 224 228 223 215 239 273 294 287 332 293 263 285 288 290 296 280 263 263 259 256 252 247 255 255 254 252 253 254 251 249 246 246 246 246 245 244 241 240 239 238 240 245 255 255 255 260 262 274
225 227 234 245 225 246 247 270 272 258 251 268 279 283 289 283 284 276 270 266 266 265 254 262 262 260 259 254 258 258 254 252 250 249 248 246 246 243 241 242 243 245 246 255 255 257 257 257 262
233 201 227 245 251 256 264 261 262 274 279 280 283 281 281 284 279 283 280 280 280 272 267 268 273 271 265 260 259 257 255 255 253 252 253 251 249 246 240 247 246 247 247 255 259 256 259 261 259
147 227 240 257 255 252 264 274 267 267 278 279 281 280 277 277 279 280 282 282 278 275 277 297 287 285 276 267 261 257 254 255 257 257 258 257 254 250 243 245 252 251 246 259 256 257 264 265 258
250 273 284 230 229 251 260 274 256 258 266 265 272 273 277 276 277 277 280 281 277 291 298 297 297 291 282 275 274 259 253 252 254 257 259 261 258 256 249 249 251 248 249 253 247 248 257 254 254
185 161 243 242 180 228 164 255 254 262 251 252 254 263 271 278 278 275 277 282 288 294 296 293 290 291 289 278 281 266 256 250 250 252 258 262 262 263 255 250 247 249 249 246 244 253 257 254 259
247 233 217 246 210 189 196 255 181 219 244 252 264 273 274 272 274 275 277 285 291 299 300 299 292 290 283 276 272 264 255 245 249 251 256 261 268 267 252 243 239 234 232 234 249 262 260 254 263
211 224 235 197 202 198 216 251 251 260 271 273 273 275 275 275 273 277 284 288 296 295 294 292 293 291 285 274 263 256 242 244 252 255 260 265 262 245 235 234 232 227 222 232 262 271 265 260 260
47 100 65 18 252 245 224 248 252 251 258 263 266 266 269 271 278 283 284 286 291 291 290 291 297 280 280 268 255 241 236 247 252 254 255 254 231 219 220 222 224 211 226 243 258 261 257 262 274
269 237 219 273 258 224 280 286 278 255 259 257 261 261 263 273 277 279 280 282 275 286 289 296 300 274 269 255 247 238 242 246 251 252 244 225 213 210 214 216 240 238 228 237 256 265 272 271 269
199 230 208 218 301 286 307 285 278 263 240 255 258 260 263 265 270 276 275 269 274 286 290 297 295 279 256 247 237 239 240 241 234 226 217 208 205 206 221 226 226 215 227 243 265 273 268 270 263
201 170 184 327 189 256 94 287 269 268 263 251 257 261 261 266 270 268 268 274 277 285 285 290 284 265 249 241 236 238 244 236 230 219 200 195 197 197 197 201 205 230 239 263 269 272 271 257 242
238 227 244 226 250 284 260 317 279 209 262 255 252 254 256 256 259 263 267 272 279 280 279 281 265 248 236 231 233 238 228 220 201 183 184 183 190 193 202 208 224 242 253 268 276 274 260 242 233
199 169 144 130 126 243 183 196 278 247 247 245 261 255 259 262 264 269 272 274 274 271 278 269 250 229 221 220 216 213 209 194 186 183 183 191 192 193 207 224 231 250 266 276 267 249 234 228 228
174 74 97 145 183 233 175 189 239 275 306 208 282 294 276 278 275 277 272 267 271 274 272 249 227 211 202 193 192 186 188 187 189 189 186 185 193 210 224 231 237 254 267 254 242 239 236 242 241
185 160 174 184 177 238 175 226 239 236 260 274 286 293 294 306 308 298 282 279 270 270 243 220 199 191 180 181 173 175 180 179 173 175 179 190 208 214 222 230 244 251 235 237 242 242 240 235 233
198 165 207 34 267 143 214 261 289 284 286 283 297 316 323 325 324 302 294 266 261 234 208 188 179 177 176 172 175 173 169 168 171 176 185 191 204 220 230 232 230 211 218 230 222 220 209 208 212
159 170 107 355 207 241 255 248 232 302 306 314 342 318 331 329 321 304 275 238 208 176 172 171 174 173 168 171 169 166 167 170 172 177 191 206 223 222 209 188 189 196 198 194 196 217 221 225 225
336 308 153 153 175 220 308 262 216 229 88 352 324 332 332 327 327 277 213 185 162 163 167 167 168 167 166 164 161 161 165 169 176 191 203 209 194 166 166 174 184 185 196 200 221 232 240 247 230
168 243 253 204 251 252 159 268 311 116 58 8 339 335 335 329 330 215 177 162 161 163 164 165 166 165 161 162 162 164 167 172 176 178 180 171 163 160 166 164 163 163 153 187 233 246 241 234 230
Height
1507 1507 1509 1511 1522 1524 1525 1510 1492 1489 1486 1482 1479 1479 1480 1482 1485 1501 1480 1484 1486 1489 1491 1493 1496 1500 1501 1503 1505 1506 1506 1507 1509 1509 1510 1511 1511 1512 1513 1515 1516 1517 1518 1519 1520 1521 1521 1522 1524
1506 1506 1509 1511 1526 1532 1521 1495 1491 1486 1481 1482 1480 1477 1479 1480 1478 1478 1481 1483 1486 1487 1490 1492 1495 1498 1501 1501 1503 1505 1506 1506 1508 1510 1511 1511 1512 1513 1514 1514 1515 1517 1517 1518 1518 1519 1520 1520 1522
1506 1507 1507 1513 1521 1525 1514 1490 1485 1481 1481 1480 1479 1478 1478 1476 1476 1478 1480 1482 1485 1486 1489 1490 1494 1497 1498 1500 1502 1505 1506 1507 1508 1509 1511 1512 1513 1514 1514 1515 1516 1516 1517 1518 1517 1518 1519 1519 1520
1505 1508 1507 1514 1513 1504 1495 1485 1483 1480 1475 1479 1475 1477 1476 1476 1476 1479 1480 1483 1484 1486 1488 1491 1493 1495 1498 1499 1501 1504 1506 1507 1508 1508 1510 1512 1513 1514 1514 1515 1515 1515 1516 1516 1517 1517 1518 1518 1518
1505 1505 1508 1512 1506 1495 1487 1484 1483 1481 1479 1474 1475 1475 1474 1476 1476 1479 1480 1481 1483 1484 1486 1489 1492 1494 1496 1498 1499 1501 1504 1505 1506 1507 1509 1509 1511 1512 1512 1514 1514 1515 1515 1515 1516 1516 1517 1517 1517
1504 1503 1514 1509 1500 1490 1484 1481 1481 1479 1476 1473 1475 1473 1473 1475 1478 1479 1480 1481 1483 1484 1486 1488 1491 1491 1492 1494 1496 1498 1500 1502 1504 1505 1506 1507 1509 1510 1511 1511 1512 1513 1513 1514 1515 1515 1515 1516 1516
1500 1504 1507 1500 1496 1490 1484 1478 1479 1476 1473 1475 1475 1474 1473 1473 1476 1478 1480 1482 1484 1485 1486 1487 1489 1489 1491 1492 1492 1494 1497 1499 1500 1502 1502 1504 1505 1507 1508 1508 1510 1511 1511 1512 1513 1513 1514 1515 1514
1496 1497 1501 1494 1493 1487 1479 1478 1475 1474 1472 1471 1473 1474 1472 1471 1474 1477 1480 1481 1483 1483 1484 1486 1487 1487 1488 1489 1490 1493 1494 1496 1496 1497 1498 1499 1501 1502 1505 1506 1507 1509 1510 1510 1511 1511 1511 1512 1512
1493 1501 1504 1490 1487 1479 1476 1477 1472 1472 1471 1470 1471 1471 1471 1470 1474 1476 1477 1478 1480 1481 1482 1483 1484 1485 1486 1487 1487 1489 1490 1492 1494 1494 1495 1496 1496 1497 1500 1503 1505 1506 1508 1509 1509 1509 1509 1510 1510
1487 1495 1486 1475 1474 1476 1472 1473 1474 1471 1467 1467 1469 1469 1470 1472 1474 1476 1476 1476 1478 1478 1479 1480 1481 1480 1482 1483 1484 1485 1486 1488 1489 1489 1489 1490 1490 1493 1497 1499 1502 1504 1505 1506 1506 1506 1507 1508 1508
1477 1476 1471 1467 1472 1474 1469 1466 1466 1467 1468 1466 1464 1466 1467 1471 1473 1476 1476 1475 1475 1476 1476 1476 1477 1478 1479 1479 1479 1480 1481 1482 1483 1483 1484 1485 1486 1489 1491 1495 1498 1500 1502 1503 1504 1504 1504 1505 1506
1475 1466 1466 1462 1469 1471 1471 1467 1464 1464 1463 1463 1462 1464 1465 1466 1467 1471 1472 1472 1471 1471 1472 1473 1473 1474 1474 1474 1474 1473 1475 1475 1476 1477 1478 1479 1480 1483 1486 1491 1495 1497 1500 1501 1502 1502 1502 1503 1504
1465 1462 1464 1462 1466 1466 1468 1461 1462 1454 1456 1454 1456 1457 1458 1459 1461 1464 1467 1466 1465 1466 1467 1469 1470 1469 1468 1468 1468 1468 1468 1468 1469 1471 1472 1473 1475 1477 1482 1488 1491 1494 1497 1498 1499 1499 1500 1500 1502
1456 1459 1460 1460 1462 1463 1465 1458 1459 1451 1454 1452 1454 1451 1450 1451 1455 1458 1459 1458 1459 1461 1463 1463 1462 1461 1460 1460 1460 1460 1461 1462 1463 1466 1467 1468 1469 1470 1477 1484 1487 1490 1493 1494 1494 1496 1497 1498 1498
1454 1460 1458 1457 1459 1460 1463 1454 1441 1451 1451 1449 1448 1445 1443 1445 1449 1450 1451 1451 1454 1455 1455 1455 1454 1452 1452 1452 1452 1452 1453 1455 1457 1459 1460 1461 1463 1466 1472 1478 1481 1485 1487 1488 1487 1490 1493 1493 1495
1456 1459 1463 1448 1457 1457 1460 1434 1437 1441 1444 1441 1441 1439 1439 1437 1440 1443 1444 1445 1447 1447 1447 1446 1445 1444 1444 1444 1445 1444 1446 1450 1451 1452 1455 1457 1459 1462 1466 1470 1473 1478 1481 1483 1485 1486 1488 1490 1491
1457 1451 1454 1453 1445 1452 1454 1423 1435 1438 1441 1435 1434 1434 1434 1434 1434 1436 1437 1439 1440 1438 1436 1436 1436 1436 1436 1436 1437 1437 1441 1444 1445 1447 1450 1453 1455 1456 1460 1464 1467 1471 1474 1478 1481 1482 1484 1486 1487
1449 1452 1445 1449 1442 1443 1447 1425 1435 1437 1437 1431 1430 1427 1427 1426 1426 1426 1428 1430 1431 1430 1429 1429 1428 1427 1427 1428 1429 1432 1435 1438 1440 1443 1446 1449 1452 1453 1456 1460 1464 1467 1470 1475 1477 1478 1480 1481 1482
1445 1447 1447 1442 1438 1439 1439 1431 1432 1432 1429 1427 1424 1421 1420 1418 1419 1419 1419 1421 1422 1423 1423 1422 1420 1419 1419 1420 1422 1425 1428 1432 1434 1439 1442 1445 1448 1451 1454 1458 1462 1465 1468 1472 1474 1475 1476 1476 1477
1446 1449 1451 1446 1440 1442 1440 1434 1431 1429 1423 1422 1418 1415 1414 1413 1412 1413 1414 1415 1417 1418 1417 1416 1414 1412 1413 1414 1417 1421 1424 1426 1431 1435 1439 1443 1445 1449 1453 1456 1460 1462 1465 1468 1470 1471 1471 1472 1473
1444 1447 1447 1450 1442 1435 1438 1428 1423 1415 1414 1411 1408 1407 1406 1406 1406 1406 1408 1408 1410 1410 1410 1410 1408 1407 1408 1411 1414 1417 1420 1424 1427 1431 1435 1439 1444 1447 1451 1454 1457 1459 1462 1465 1466 1466 1467 1468 1469
1446 1439 1439 1442 1448 1454 1436 1437 1419 1411 1405 1406 1404 1401 1396 1398 1400 1398 1399 1401 1402 1403 1404 1403 1403 1402 1404 1407 1410 1414 1416 1420 1424 1428 1433 1437 1442 1446 1450 1453 1455 1457 1460 1461 1462 1462 1463 1463 1464
1434 1436 1441 1444 1447 1447 1444 1455 1394 1402 1401 1395 1392 1388 1387 1388 1389 1389 1391 1393 1395 1397 1397 1397 1395 1397 1400 1404 1408 1411 1415 1418 1422 1427 1431 1436 1441 1445 1448 1451 1453 1455 1457 1457 1458 1458 1459 1460 1461
1426 1433 1439 1442 1451 1457 1444 1452 1393 1403 1390 1385 1384 1382 1380 1381 1382 1383 1384 1385 1387 1388 1390 1391 1391 1393 1397 1402 1405 1409 1413 1416 1420 1425 1430 1435 1440 1443 1445 1448 1450 1452 1453 1453 1454 1455 1456 1457 1459
1427 1439 1455 1459 1462 1444 1430 1446 1394 1383 1382 1382 1381 1380 1377 1377 1377 1376 1377 1379 1381 1382 1383 1385 1387 1391 1395 1400 1404 1409 1412 1415 1420 1425 1429 1433 1437 1440 1442 1445 1447 1448 1449 1450 1451 1452 1454 1455 1457
1431 1436 1444 1440 1446 1438 1428 1425 1393 1382 1374 1378 1381 1377 1376 1374 1372 1370 1369 1371 1372 1375 1377 1380 1384 1390 1395 1399 1404 1409 1413 1416 1421 1425 1429 1433 1436 1438 1440 1443 1444 1445 1446 1448 1449 1450 1452 1453 1455
1425 1432 1423 1432 1429 1436 1421 1400 1388 1380 1379 1376 1379 1377 1374 1370 1367 1364 1362 1364 1366 1369 1373 1378 1384 1390 1394 1400 1405 1409 1414 1418 1422 1426 1429 1432 1434 1436 1438 1439 1441 1442 1444 1446 1447 1449 1451 1452 1453
1415 1417 1431 1441 1434 1434 1416 1408 1398 1384 1381 1378 1379 1376 1370 1365 1361 1358 1357 1358 1361 1366 1373 1379 1385 1390 1395 1401 1406 1410 1414 1419 1422 1425 1428 1431 1433 1434 1436 1437 1439 1441 1443 1445 1447 1449 1450 1451 1452
1417 1420 1420 1426 1432 1424 1419 1407 1381 1375 1379 1381 1378 1374 1370 1363 1355 1352 1354 1358 1362 1368 1374 1379 1385 1390 1396 1402 1407 1411 1415 1418 1422 1425 1427 1429 1431 1433 1434 1436 1438 1441 1443 1444 1446 1448 1449 1450 1450
1419 1420 1421 1424 1423 1418 1423 1409 1372 1374 1375 1375 1373 1370 1366 1361 1354 1353 1354 1357 1363 1369 1376 1381 1387 1392 1398 1404 1408 1412 1415 1418 1421 1424 1426 1429 1431 1433 1434 1436 1439 1441 1442 1444 1445 1446 1447 1447 1448